Poplar Bluff, MO

2:58 PM CST on December 15, 2019 (GMT -0600)
Poplar Bluff Municipal

Weather History for KPOF - November, 2019

Change the Weather History Date:

Thursday, November 21, 2019

  Actual Average Record
Temperature  
Mean Temperature 54 °F 45 °F  
Max Temperature 57 °F 55 °F 77 °F (1943)
Min Temperature 50 °F 36 °F 10 °F (1937)
Degree Days  
Heating Degree Days 12 20  
Month to date heating degree days 490 332  
Since 1 July heating degree days 742 585  
Cooling Degree Days 0 0  
Month to date cooling degree days 0 0  
Year to date cooling degree days 1830 1561  
Growing Degree Days 4 (Base 50)    
Moisture  
Dew Point 51 °F    
Average Humidity 89    
Maximum Humidity 100    
Minimum Humidity 55    
Precipitation  
Precipitation 0.90 in 0.14 in 1.92 in (1992)
Month to date precipitation 3.80 3.64  
Year to date precipitation 64.53 42.85  
Sea Level Pressure  
Sea Level Pressure 30.02 in    
Wind  
Wind Speed 7 mph ()    
Max Wind Speed 20 mph    
Max Gust Speed 29 mph    
Visibility 5.6 miles    
Events Rain    
T = Trace of Precipitation, MM = Missing Value Source: Averaged Metar Reports

Daily Weather History Graph

Daily Weather History Graph

Search for Another Location

Airport or City:

Astronomy

Nov. 21, 2019 Rise Set
Actual Time 6:45 AM CST 4:48 PM CST
Civil Twilight 6:17 AM CST 5:16 PM CST
Nautical Twilight 5:45 AM CST 5:48 PM CST
Astronomical Twilight 5:14 AM CST 6:18 PM CST
Moon 12:52 AM CST (11/21) 2:07 PM CST (11/21)
Length of Visible Light 10h 59m
Length of Day
10h 03m
Waning Crescent, 29% of the Moon is Illuminated
Nov 21
Waning Crescent
Nov 26
New
Dec 4
First Quarter
Dec 11
Full
Dec 18
Last Quarter

Hourly Weather History & Observations

Time (CST) Temp. Dew Point Humidity Pressure Visibility Wind Dir Wind Speed Gust Speed Precip Events Conditions
12:53 AM 53.1 °F 39.0 °F 59% 30.07 in 10.0 mi South 4.6 mph - N/A   Clear
1:53 AM 54.0 °F 39.9 °F 59% 30.05 in 10.0 mi SSE 8.1 mph - N/A   Clear
2:53 AM 54.0 °F 39.9 °F 59% 30.07 in 10.0 mi South 4.6 mph - N/A   Overcast
3:53 AM 55.9 °F 39.9 °F 55% 30.05 in 10.0 mi South 10.4 mph - N/A   Overcast
5:53 AM 50.0 °F 46.9 °F 89% 30.06 in 7.0 mi SSE 3.5 mph - 0.10 in Rain Rain
6:53 AM 50.0 °F 46.9 °F 89% 30.06 in 7.0 mi SSE 10.4 mph - 0.05 in Rain Light Rain
7:53 AM 51.1 °F 46.9 °F 86% 30.05 in 10.0 mi South 9.2 mph - 0.00 in Rain Light Rain
8:28 AM 52.0 °F 46.9 °F 83% 30.06 in 2.5 mi SSW 8.1 mph - 0.02 in Rain Heavy Rain
8:42 AM 51.1 °F 46.9 °F 86% 30.06 in 5.0 mi SSW 5.8 mph - 0.07 in Rain Light Rain
8:53 AM 51.1 °F 48.0 °F 89% 30.07 in 7.0 mi SSW 6.9 mph - 0.09 in Rain Light Rain
9:45 AM 52.0 °F 48.9 °F 89% 30.05 in 10.0 mi SSW 10.4 mph - 0.00 in   Overcast
9:53 AM 53.1 °F 48.9 °F 86% 30.06 in 10.0 mi South 10.4 mph - 0.00 in   Overcast
10:51 AM 55.4 °F 51.8 °F 88% 30.04 in 10.0 mi SSW 13.8 mph 24.2 mph N/A   Overcast
10:53 AM 55.0 °F 52.0 °F 89% 30.04 in 10.0 mi SSW 13.8 mph 24.2 mph N/A   Overcast
11:53 AM 55.9 °F 53.1 °F 90% 30.02 in 10.0 mi SSW 16.1 mph 24.2 mph N/A   Overcast
12:53 PM 55.9 °F 53.1 °F 90% 30.00 in 10.0 mi SSW 15.0 mph 21.9 mph N/A   Overcast
1:53 PM 57.0 °F 54.0 °F 89% 29.98 in 10.0 mi SSW 15.0 mph - N/A   Overcast
3:53 PM 57.0 °F 55.0 °F 93% 29.99 in 9.0 mi SSW 11.5 mph - N/A   Overcast
4:53 PM 57.0 °F 55.0 °F 93% 30.00 in 7.0 mi SSW 10.4 mph - N/A   Overcast
5:53 PM 57.0 °F 55.0 °F 93% 30.00 in 7.0 mi SSW 11.5 mph - N/A   Overcast
6:35 PM 57.0 °F 55.0 °F 93% 30.00 in 4.0 mi SSW 9.2 mph - N/A   Overcast
6:53 PM 57.0 °F 55.0 °F 93% 30.00 in 3.0 mi SSW 9.2 mph - N/A   Overcast
7:21 PM 57.2 °F 55.4 °F 94% 30.00 in 2.0 mi South 5.8 mph - N/A   Overcast
7:34 PM 55.9 °F 55.0 °F 97% 30.00 in 1.5 mi South 3.5 mph - N/A   Overcast
7:53 PM 55.9 °F 55.0 °F 97% 29.99 in 1.0 mi SE 6.9 mph - 0.03 in Rain Rain
8:10 PM 55.9 °F 54.0 °F 93% 29.98 in 2.5 mi SSE 3.5 mph - 0.04 in Rain Light Rain
8:38 PM 55.9 °F 54.0 °F 93% 29.98 in 2.5 mi South 6.9 mph - 0.04 in Rain Light Rain
8:53 PM 55.9 °F 54.0 °F 93% 29.97 in 3.0 mi SSE 8.1 mph - 0.06 in Rain Light Rain
9:21 PM 55.9 °F 54.0 °F 93% 30.01 in 1.8 mi WSW 3.5 mph - 0.01 in Rain Heavy Rain
9:36 PM 55.9 °F 55.0 °F 97% 30.00 in 3.0 mi NW 4.6 mph - 0.16 in Rain Light Rain
9:51 PM 55.4 °F 53.6 °F 94% 30.03 in 4.0 mi West 5.8 mph - 0.17 in Rain Light Rain
9:53 PM 55.9 °F 54.0 °F 93% 30.02 in 2.5 mi WSW 3.5 mph - 0.17 in Rain Light Rain
10:00 PM 55.9 °F 55.0 °F 97% 30.01 in 1.2 mi Calm Calm - 0.07 in Rain Heavy Rain
10:06 PM 55.0 °F 54.0 °F 96% 30.01 in 2.0 mi Calm Calm - 0.13 in Rain Rain
10:13 PM 55.0 °F 54.0 °F 96% 30.00 in 1.8 mi ENE 3.5 mph - 0.17 in Rain Rain
10:21 PM 55.9 °F 54.0 °F 93% 30.01 in 3.0 mi Calm Calm - 0.20 in Rain Light Rain
10:34 PM 55.9 °F 54.0 °F 93% 29.98 in 2.0 mi East 6.9 mph - 0.23 in Rain Rain
10:53 PM 55.9 °F 55.0 °F 97% 29.99 in 5.0 mi East 3.5 mph - 0.27 in Rain Light Rain
11:15 PM 55.0 °F 54.0 °F 96% 29.98 in 5.0 mi NNE 12.7 mph 20.7 mph 0.01 in Rain Light Rain
11:35 PM 53.1 °F 51.1 °F 93% 29.98 in 4.0 mi NNE 13.8 mph - 0.03 in Rain Light Rain
11:53 PM 52.0 °F 50.0 °F 93% 30.02 in 2.5 mi North 18.4 mph 25.3 mph 0.08 in Rain Heavy Rain